Location: Derby
(52.9213°N, 1.4761°W)
Time: 19:27:39
(UTC+01:00)

Tiros 1 - Pass Details

Date: 19 May 2025
Orbit: 620 x 651 km, 48.4° (Epoch: 13 June)

Event Time Altitude Azimuth Distance (km) Brightness Sun altitude
Rises 23:16:26 0° 274° (W) 2,918 10.9 -13.6°
Reaches altitude 10° 23:18:56 10° 264° (W) 2,014 9.9 -13.7°
Maximum altitude 23:23:01 31° 203° (SSW) 1,112 8.0 -14.0°
Enters shadow 23:24:54 23° 162° (SSE) 1,362 8.2 -14.1°
Drops below altitude 10° 23:27:07 10° 141° (SE) 2,026 - -14.2°
Sets 23:29:38 0° 131° (SE) 2,938 - -14.4°
